DO9LL-1 Weather Reports


Display with metric or nautical units.
time (UTC)temp
F
wind
direction
speed
MPH
gust
MPH
rain 1hr
in
rain 24hr
in
rain mn
in
humidity
%
barometer
mb
20260502130734 76 219 2.0 6.0 0.00 0.00 0.00 48 1016.0
20260502123724 77 257 3.0 8.0 0.00 0.00 0.00 48 1016.4
20260502122720 75 269 3.0 9.0 0.00 0.00 0.00 50 1016.5
20260502121717 76 266 3.0 7.0 0.00 0.00 0.00 49 1016.6
20260502120734 75 232 2.0 6.0 0.00 0.00 0.00 48 1016.8
20260502115731 74 240 3.0 6.0 0.00 0.00 0.00 50 1016.8
20260502114728 74 263 3.0 4.0 0.00 0.00 0.00 51 1016.9
20260502113723 73 252 3.0 9.0 0.00 0.00 0.00 52 1016.9
20260502112719 73 254 3.0 7.0 0.00 0.00 0.00 52 1017.1
20260502111716 74 276 3.0 7.0 0.00 0.00 0.00 49 1017.2
20260502110733 73 258 2.0 6.0 0.00 0.00 0.00 49 1017.1
20260502105730 73 261 4.0 7.0 0.00 0.00 0.00 48 1017.3
20260502104728 74 251 3.0 7.0 0.00 0.00 0.00 47 1017.4
20260502103723 72 229 2.0 7.0 0.00 0.00 0.00 47 1017.4
20260502102720 73 257 3.0 7.0 0.00 0.00 0.00 47 1017.5
20260502101716 74 252 3.0 6.0 0.00 0.00 0.00 47 1017.6
20260502100738 74 237 2.0 4.0 0.00 0.00 0.00 46 1017.6
20260502090732 70 233 1.0 4.0 0.00 0.00 0.00 46 1018.0
20260502070732 62 190 0.0 3.0 0.00 0.00 0.00 51 1018.1
20260502065729 61 159 1.0 4.0 0.00 0.00 0.00 52 1018.2
20260502064725 61 141 1.0 6.0 0.00 0.00 0.00 53 1018.4
20260502063722 60 180 1.0 3.0 0.00 0.00 0.00 54 1018.3
20260502062719 59 153 0.0 3.0 0.00 0.00 0.00 55 1018.2
20260502061715 59 152 1.0 3.0 0.00 0.00 0.00 56 1018.2
20260502060732 58 151 1.0 4.0 0.00 0.00 0.00 56 1018.2
20260502055729 58 167 2.0 6.0 0.00 0.00 0.00 56 1018.3
20260502054726 57 164 1.0 3.0 0.00 0.00 0.00 56 1018.3
20260502053723 56 163 1.0 4.0 0.00 0.00 0.00 57 1018.2
20260502052719 56 155 1.0 4.0 0.00 0.00 0.00 58 1018.3
20260502051717 55 156 1.0 3.0 0.00 0.00 0.00 58 1018.2
20260502050733 55 150 1.0 3.0 0.00 0.00 0.00 58 1018.3
20260502045729 54 161 1.0 3.0 0.00 0.00 0.00 59 1018.3
20260502044726 54 160 1.0 3.0 0.00 0.00 0.00 59 1018.5
20260502043723 54 164 1.0 2.0 0.00 0.00 0.00 59 1018.5
20260502042719 54 164 1.0 3.0 0.00 0.00 0.00 59 1018.5
20260502041716 54 162 0.0 3.0 0.00 0.00 0.00 59 1018.5
20260502040733 54 157 0.0 3.0 0.00 0.00 0.00 59 1018.6
20260502035730 54 149 0.0 2.0 0.00 0.00 0.00 59 1018.7
20260502034726 54 156 1.0 3.0 0.00 0.00 0.00 58 1018.7
20260502033723 54 168 1.0 2.0 0.00 0.00 0.00 58 1018.8
20260502032719 55 150 0.0 2.0 0.00 0.00 0.00 57 1018.8
20260502031716 55 160 1.0 2.0 0.00 0.00 0.00 57 1018.8
20260502030733 55 154 1.0 2.0 0.00 0.00 0.00 56 1018.9
20260502025732 55 160 1.0 2.0 0.00 0.00 0.00 56 1019.0
20260502024726 55 152 1.0 2.0 0.00 0.00 0.00 56 1019.1
20260502023723 55 162 0.0 1.0 0.00 0.00 0.00 56 1018.9
20260502022719 55 138 0.0 1.0 0.00 0.00 0.00 55 1019.1
20260502021716 56 164 0.0 1.0 0.00 0.00 0.00 55 1019.3
20260502020733 56 151 0.0 2.0 0.00 0.00 0.00 54 1019.3
20260502015729 57 159 1.0 3.0 0.00 0.00 0.00 53 1019.4
20260502014726 57 150 1.0 3.0 0.00 0.00 0.00 53 1019.6
20260502013723 57 123 1.0 2.0 0.00 0.00 0.00 53 1019.6
20260502012711 57 161 0.0 2.0 0.00 0.00 0.00 52 1019.7
20260502011716 57 162 1.0 2.0 0.00 0.00 0.00 52 1019.7
20260502010733 58 171 0.0 2.0 0.00 0.00 0.00 51 1019.9
20260502005729 58 157 1.0 2.0 0.00 0.00 0.00 51 1019.9
20260502004727 58 155 1.0 2.0 0.00 0.00 0.00 50 1020.1
20260502003723 58 149 1.0 2.0 0.00 0.00 0.00 50 1020.1
20260502002720 58 156 0.0 1.0 0.00 0.00 0.00 50 1020.3
20260502001719 58 177 0.0 1.0 0.00 0.00 0.00 50 1020.3
20260502000735 58 131 0.0 1.0 0.00 0.00 0.00 50 1020.4
20260501235731 59 159 0.0 2.0 0.00 0.00 0.00 49 1020.5
20260501234727 59 150 0.0 2.0 0.00 0.00 0.00 48 1020.5
20260501233724 59 146 1.0 2.0 0.00 0.00 0.00 48 1020.5
20260501232721 60 160 1.0 2.0 0.00 0.00 0.00 47 1020.6
20260501231718 60 148 1.0 3.0 0.00 0.00 0.00 47 1020.6
20260501230734 60 146 1.0 2.0 0.00 0.00 0.00 47 1020.7
20260501225731 59 146 0.0 1.0 0.00 0.00 0.00 47 1020.7
20260501224728 60 0.0 0.0 0.00 0.00 0.00 47 1020.7
20260501223729 60 150 0.0 2.0 0.00 0.00 0.00 46 1020.9
20260501222726 60 153 1.0 2.0 0.00 0.00 0.00 46 1020.8
20260501221718 60 149 0.0 1.0 0.00 0.00 0.00 46 1020.9
20260501220734 60 0.0 0.0 0.00 0.00 0.00 47 1020.9
20260501215731 60 0.0 0.0 0.00 0.00 0.00 47 1020.9
20260501214728 59 0.0 0.0 0.00 0.00 0.00 47 1020.9
20260501213724 59 0.0 0.0 0.00 0.00 0.00 48 1020.9
20260501212716 60 0.0 0.0 0.00 0.00 0.00 47 1020.9
20260501211718 60 0.0 0.0 0.00 0.00 0.00 46 1021.0
20260501210734 60 0.0 0.0 0.00 0.00 0.00 46 1021.0
20260501205731 61 0.0 0.0 0.00 0.00 0.00 46 1021.0
20260501204727 61 0.0 0.0 0.00 0.00 0.00 46 1021.2
20260501203724 61 0.0 0.0 0.00 0.00 0.00 47 1021.2
20260501202720 61 0.0 0.0 0.00 0.00 0.00 47 1021.2
20260501201717 61 0.0 0.0 0.00 0.00 0.00 47 1021.2
20260501200733 61 128 0.0 1.0 0.00 0.00 0.00 50 1021.2
20260501195730 60 0.0 0.0 0.00 0.00 0.00 51 1021.1
20260501194727 61 0.0 0.0 0.00 0.00 0.00 50 1021.0
20260501193723 61 0.0 0.0 0.00 0.00 0.00 51 1021.1
20260501192720 64 0.0 0.0 0.00 0.00 0.00 50 1021.1
20260501191717 65 0.0 0.0 0.00 0.00 0.00 43 1021.1
20260501190733 66 0.0 0.0 0.00 0.00 0.00 43 1021.1
20260501185730 67 0.0 0.0 0.00 0.00 0.00 43 1021.0
20260501184727 68 0.0 0.0 0.00 0.00 0.00 42 1021.1
20260501183723 69 0.0 0.0 0.00 0.00 0.00 41 1021.1
20260501182720 70 0.0 0.0 0.00 0.00 0.00 39 1021.0
20260501181716 71 0.0 0.0 0.00 0.00 0.00 39 1021.0
20260501180733 72 231 0.0 1.0 0.00 0.00 0.00 36 1020.9
20260501175730 73 217 1.0 2.0 0.00 0.00 0.00 36 1020.9
20260501174726 74 244 0.0 2.0 0.00 0.00 0.00 34 1020.9
20260501173724 74 221 1.0 2.0 0.00 0.00 0.00 34 1020.9
20260501172720 75 237 1.0 2.0 0.00 0.00 0.00 34 1020.8
20260501171717 76 196 2.0 3.0 0.00 0.00 0.00 33 1020.9
20260501170733 77 232 1.0 3.0 0.00 0.00 0.00 32 1020.9
20260501165730 76 253 1.0 4.0 0.00 0.00 0.00 31 1021.0
20260501164727 77 209 1.0 4.0 0.00 0.00 0.00 31 1021.2
20260501163723 77 258 2.0 4.0 0.00 0.00 0.00 30 1021.1
20260501162721 77 197 1.0 4.0 0.00 0.00 0.00 30 1021.3
20260501161717 77 216 2.0 4.0 0.00 0.00 0.00 30 1021.4
20260501160734 77 259 2.0 3.0 0.00 0.00 0.00 29 1021.5
20260501155729 78 231 2.0 6.0 0.00 0.00 0.00 30 1021.6
20260501154725 78 196 2.0 6.0 0.00 0.00 0.00 29 1021.7
20260501153722 78 203 1.0 4.0 0.00 0.00 0.00 29 1021.8
20260501152719 78 171 2.0 4.0 0.00 0.00 0.00 29 1022.0
20260501151735 78 250 1.0 4.0 0.00 0.00 0.00 29 1022.1
20260501150732 78 234 2.0 6.0 0.00 0.00 0.00 29 1022.2